sat.trackr.live / text

‹ back to catalog

STARLINK-5003

NORAD 53905 · 2022-119V

PAYLOAD ACTIVE UNKNOWN

§ Identity

Operator
Country
US
Launch date
2022-09-24
Launch site
AFETR
Launch vehicle
Mass (kg)
RCS (m²)

Purposes: comms

External: N2YO · Heavens-Above · Gunter

§ Orbital elements

Epoch: 2026-05-24T22:40:14.509632Z

Period
95.44 min
Inclination
53.2122°
Eccentricity
0.0001284
Mean motion
15.08840776 rev/d
Perigee alt
538.9 km
Apogee alt
540.6 km
Semi-major
6,917.9 km
B*
2.5149e-5
RAAN
332.0202°
Arg perigee
80.9990°
Mean anomaly
279.1148°
Rev number
20,333

§ Raw data

STARLINK-50031 53905U 22119V   26144.94461238  .00000112  00000+0  25149-4 0  99992 53905  53.2122 332.0202 0001284  80.9990 279.1148 15.08840776203330

JSON: /api/v1/satellites/53905 · /tle

For live sub-satellite position, see the globe view (requires WebGL).

§ Visibility from observer

Set your observer location to see the next 7 days of passes ≥ 10°. The values pass through the URL so the page stays shareable.

No JS? Fill the form by hand. The geolocation button needs JavaScript.